Showing default

UKUBE 1, 40074

Orbit data source: Space-Track

UKUBE 1, 40074 is a payload satellite owned by UKSA (UK) in SSO that was launched on Tue, 08 Jul 2014 UTC via a SOYUZ-2-1B launch vehicle from the Tyuratam Missile And Space Complex (TTMTR). Payloads include a variety of satellites, spacecraft, and rockets equipped with specific instruments for various scientific and technological missions. These include communications satellites like Starlink; space stations such as the ISS; scientific satellites like the Hubble; Earth observation satellites from companies like Planet Labs, Umbra, and HawkEye 360; GPS; miniature CubeSats for education and research; and military/defense satellites.

Loading next visibility...
UKUBE 1 details
Identifier
40074, 2014-037F
Orbit
SSO
Last TLE update8 hours ago
Origin
Flag of UKUKSA (UK)
ManufacturerClydeSpace
MissionOperational Commercial Technology
Bus & MotorCUBESAT 3U, Unknown motor
Mass4 kg wet, 4 kg dry
Launch date (UTC)
2014-07-08 (10 years ago)
Launch vehicle
SOYUZ-2-1B
Launch site
Tyuratam Missile And Space Complex (TTMTR)
Object type
Payload
Rocket body
Debris
Shape & HBRBox + 1 Pan, 0.4 m
Radar Cross Section0.038 m², Medium (>0.1 m² and < 1m²)

Expand to show TLE details & history

TLE from 8 hours ago
0 UKUBE 1
1 40074U 14037F   24346.59954753  .00014069  00000-0  11406-2 0  9990
2 40074  98.3597 288.2563 0002612 124.4258 235.7211 14.99810622565312
Epoch: 2024-12-11T14:23Z
Definitive object data (Epoch: 2024-12-11T14:23:20.906Z)
Latitude0.00002°
Longitude-8.37273°
Altitude571.537 km
Speed7.575 km/s
True Right ascension19h 13m 01s
True Declination0° 00' 00"
Sunlit
Object was in daylight at TLE epoch
Visualization TLE readout
Latitude5.67485°
Longitude-8.84569°
Altitude570.766 km
Speed7.576 km/s
Apparent Right ascension16h 32m 44s
Apparent Declination-46° 43' 12"
Sunlit
Object is in daylight
Visualization observer readout
Local Sidereal Time20:49:14
Azimuth219.421° SW
Elevation-13.748°
Doppler factor1
Orbital elements
Apogee altitude566.33 km
Perigee altitude562.703 km
Semi-major axis6,942.654 km
Eccentricity0.0002612
Inclination98.3597°
RAAN288.2563°
Arg. of periapsis124.4258°
True anomaly235.69637°
Mean anomaly235.7211°
Eccentric anomaly235.70874°
Mean motion3.75193 °/min
BSTAR0.0011406
Orbital period95.95 mins
Loading maneuver chart data...
Loading historical data...
Loading historical data...
Loading historical data...
Loading historical data...
Loading historical data...
Loading historical data...
Loading historical data...

UKUBE 1 Visibility forecast

Observer location: undefined°, undefined

Span
Click to sort rows by Start time (UTC) header in descending order
Start Az.
Max El. time (UTC)
Max El. Az.
Max El.
End time (UTC)
End Az.
5 mins2024-12-12 08:35:13.379Z46.367° ENE2024-12-12 08:37:13.379Z83.944° E24.585°2024-12-12 08:40:13.379Z148.538° SSE
4 mins2024-12-12 10:11:13.379Z319.321° NNW2024-12-12 10:12:13.379Z299.453° NW19.628°2024-12-12 10:15:13.379Z246.652° WSW
5 mins2024-12-12 20:57:13.379Z216.203° SW2024-12-12 20:59:13.379Z266.501° W27.638°2024-12-12 21:02:13.379Z322.583° NNW
|